Merry Christmas and Happy New Year!

 

Sretan Božić i Nova godina!

 

METAR

METAR LDZA 230730Z 10003KT 030V150 9999 -RA FEW023 09/07 Q1026 NOSIG =
METAR LDSP 230730Z 12002KT 9999 SCT045 18/15 Q1019 NOSIG=
METAR LDDU 230730Z 11007KT 070V150 9999 FEW054 19/16 Q1020 NOSIG =
METAR LDZD 230730Z VRB02KT 9999 FEW030 SCT060 17/15 Q1020 NOSIG =
METAR LDPL 230730Z 04007KT CAVOK 16/11 Q1021 BECMG 06013KT=
METAR LDOS 230730Z 25003KT 9999 BKN037 09/07 Q1026=
METAR LDSB 230730Z 12003KT 070V170 9999 SCT040 16/14 Q1021=
METAR LDRI 230730Z 07007KT 9999 FEW040 17/10 Q1021=
METAR LDLO 230730Z 02013KT 9999 SCT040 17/11 Q1020=

TAF

TAF LDZA 230525Z 2306/2406 VRB02KT CAVOK
                 TX13/2313Z TN02/2404Z
          PROB30 2322/2406 0300 FG=         
TAF LDSP 230525Z 2306/2406 VRB02KT 9999 SCT030
                 TX19/2312Z TN12/2404Z
           TEMPO 2306/2312 RA
    PROB30 TEMPO 2308/2313 SHRA FEW025TCU SCT030
           BECMG 2316/2318 05008KT=         
TAF LDDU 230525Z 2306/2406 11008KT 9999 SCT030 BKN050
                 TX19/2310Z TN14/2404Z
           TEMPO 2306/2318 RA
    PROB30 TEMPO 2306/2315 TSRA FEW025CB BKN040
           TEMPO 2306/2310 11015KT
           BECMG 2317/2319 02015KT
    PROB40 TEMPO 2321/2406 02020G30KT=         
TAF LDZD 230525Z 2306/2406 VRB02KT 9999 FEW030
                 TX19/2312Z TN07/2404Z
           BECMG 2308/2310 06008KT
    PROB30 TEMPO 2314/2406 06015KT=         
TAF LDPL 230525Z 2306/2406 06006KT CAVOK
                 TX18/2313Z TN10/2405Z
           BECMG 2308/2310 06013KT
           TEMPO 2321/2406 06015G25KT=         
TAF LDOS 230525Z 2306/2406 35007KT 9999 BKN045
                 TX13/2313Z TN01/2405Z=         
TAF LDRI 230525Z 2306/2406 06012KT 9999 SCT033
                 TX16/2311Z TN08/2405Z
           TEMPO 2306/2406 VRB06KT
    PROB30 TEMPO 2321/2406 06015G30KT=         
TAF LDSB 230607Z 2306/2406 VRB02KT 9999 FEW015 BKN035
                 TX17/2312Z TN10/2404Z
           TEMPO 2306/2313 RA
    PROB30 TEMPO 2309/2312 SHRA FEW020TCU BKN030
           BECMG 2313/2315 03012KT
    PROB30 TEMPO 2320/2406 03022G35KT=         
TAF LDLO 230601Z 2307/2406 VRB02KT CAVOK
                 TX19/2312Z TN12/2404Z
           TEMPO 2307/2309 02012KT
           TEMPO 2314/2318 22007KT=

SIGMET

AIRMET

If you cannot log in with your user account, please contact stjepko.jancijev@crocontrol.hr.
Specifically, the website deactivates user accounts that have not been used for more than 365 days, so they must be reactivated.
 

         

      Politika MET podataka      

 

Ukoliko se svojim korisničkim računom ne možete logirati na web stranicu, molim vas da se obratite na stjepko.jancijev@crocontrol.hr.

Naime, web stranica deaktivira korisničke račune koji nisu korišteni više od 365 dana te ih je potrebno ponovno aktivirati.